Weather observations for the past three days for
Suffolk, Suffolk Municipal Airport
Imperial (Metric)
Date Time (edt) Wind (mph) Vis. (mi.) Weather Sky Cond. Temperature (ºF) Relative Humidity Wind Chill (°F) Heat Index (°F) Pressure Precipitation (in)
Air Dwpt 6 hour altimeter (in) sea level (mb) 1 hr 3 hr 6 hr
Max. Min.
17 06:55 SW 8 10.00 Fair CLR 78.8 73 83% 82 29.95 0.0
17 06:35 SW 7 10.00 Fair CLR 78.8 73 83% 82 29.94 0.0
17 06:15 SW 8 10.00 Fair CLR 78.4 72.9 83% 81 29.93 0.0
17 05:55 SW 8 10.00 Fair CLR 78.4 73 84% 81 29.93 0.0
17 05:35 SW 7 10.00 Fair CLR 78.8 72.7 82% 82 29.92 0.0
17 05:15 SW 7 10.00 Fair CLR 79.2 72.7 81% 83 29.92 0.0
17 04:55 SW 8 10.00 Fair CLR 79.7 72.9 80% 84 29.91 0.0
17 04:35 SW 7 10.00 Fair CLR 80.1 72.7 78% 84 29.91 0.0
17 04:15 SW 7 10.00 Fair CLR 80.2 72.9 78% 84 29.9 0.0
17 03:55 S 9 10.00 Fair CLR 80.2 73.4 80% 85 29.9 0.0
17 03:35 SW 7 10.00 Fair CLR 80.8 73.6 79% 86 29.91 0.0
17 03:15 SW 8 10.00 Fair CLR 81 73.9 79% 86 29.91 0.0
17 02:55 SW 9 10.00 Fair CLR 81.5 74.3 79% 87 29.91 0.0
17 02:35 SW 8 10.00 Fair CLR 82.2 75 79% 89 29.91 0.0
17 02:15 S 9 10.00 Fair CLR 82.4 76.1 81% 90 29.91 0.0
17 01:55 S 8 10.00 Fair CLR 82.8 77 88.7 82.8 83% 92 29.92 0.0
17 01:35 SW 9 10.00 Fair CLR 83.3 77.2 82% 93 29.93 0.0
17 01:15 SW 8 10.00 Fair CLR 83.5 77.7 83% 94 29.93 0.0
17 00:55 SW 9 10.00 Fair CLR 84 78.1 82% 95 29.93 0.0
17 00:35 SW 7 10.00 Fair CLR 84.2 78.4 83% 96 29.92 0.0
17 00:15 SW 8 10.00 Fair CLR 84.2 78.8 84% 96 29.92 0.0
16 23:55 SW 9 10.00 Fair CLR 84 79 85% 96 29.92 0.0
16 23:35 S 9 10.00 Fair CLR 83.5 79.2 87% 95 29.92 0.0
16 23:15 S 7 10.00 Fair CLR 83.1 78.8 87% 94 29.92 0.0
16 22:55 S 6 10.00 Fair CLR 82.9 77.9 85% 93 29.92 0.0
16 22:35 S 6 10.00 Fair CLR 83.5 77.9 83% 94 29.92 0.0
16 22:15 S 5 10.00 Fair CLR 84.2 77.9 81% 95 29.92 0.0
16 21:55 S 5 10.00 Fair CLR 84.4 77.9 81% 95 29.91 0.0
16 21:35 S 6 10.00 Fair CLR 85.3 77.5 78% 97 29.91 0.0
16 21:15 S 7 10.00 Fair CLR 85.3 77.7 78% 97 29.91 0.0
16 20:55 S 6 10.00 Fair CLR 85.6 77.9 78% 98 29.9 0.0
16 20:35 S 7 10.00 Fair CLR 86.9 77.9 75% 100 29.91 0.0
16 20:15 S 6 10.00 Fair CLR 87.8 78.3 73% 102 29.91 0.0
16 19:55 S 7 10.00 Fair CLR 88.7 79 94.3 88.7 73% 104 29.9 0.0
16 19:35 S 6 10.00 Fair CLR 89.8 79.2 71% 106 29.9 0.0
16 19:15 SW 7 10.00 Fair CLR 91.4 78.1 65% 107 29.89 0.0
16 18:55 SW 7 10.00 Fair CLR 91.6 78.4 66% 107 29.89 0.0
16 18:35 S 8 10.00 Fair CLR 92.1 78.1 64% 108 29.88 0.0
16 18:15 S 9 10.00 Fair CLR 92.7 78.1 63% 108 29.88 0.0
16 17:55 S 8 10.00 Fair CLR 93.2 77.9 61% 109 29.88 0.0
16 17:35 S 9 G 17 10.00 Fair CLR 93.2 77.4 60% 108 29.88 0.0
16 17:15 S 13 G 18 10.00 Partly Cloudy SCT040 93.6 77.4 59% 108 29.88 0.0
16 16:55 S 12 10.00 Partly Cloudy SCT040 94.3 77.9 59% 110 29.88 0.0
16 16:35 S 14 G 18 10.00 Fair CLR 93.9 77.5 59% 109 29.88 0.0
16 16:15 S 14 10.00 Partly Cloudy SCT040 SCT050 93.4 77.2 59% 108 29.88 0.0
16 15:55 SW 14 G 20 10.00 Partly Cloudy SCT038 93.4 77.4 60% 108 29.89 0.0
16 15:35 S 14 G 20 10.00 Partly Cloudy SCT038 SCT045 93.7 77.5 59% 109 29.9 0.0
16 15:15 SW 9 G 16 10.00 Partly Cloudy SCT038 93.6 78.1 61% 110 29.9 0.0
16 14:55 SW 13 10.00 Fair CLR 93.2 78.3 62% 109 29.91 0.0
16 14:35 S 13 10.00 Fair CLR 92.7 78.3 63% 109 29.91 0.0
16 14:15 S 14 G 20 10.00 Fair CLR 92.5 78.3 63% 108 29.91 0.0
16 13:55 SW 13 10.00 Partly Cloudy SCT030 92.3 77.5 92.3 78.8 62% 107 29.92 0.0
16 13:35 S 13 G 18 10.00 Partly Cloudy SCT030 91.8 78.6 66% 108 29.93 0.0
16 13:15 S 12 G 16 10.00 Fair CLR 90.7 78.3 67% 106 29.93 0.0
16 12:55 SW 12 10.00 Fair CLR 90.7 77.9 66% 105 29.93 0.0
16 12:35 SW 12 10.00 Fair CLR 91 78.4 67% 107 29.94 0.0
16 12:15 SW 9 10.00 Fair CLR 89.8 77.9 68% 104 29.95 0.0
16 11:55 S 8 10.00 Fair CLR 88.9 77.9 70% 103 29.95 0.0
16 11:35 S 12 10.00 Fair CLR 87.8 77.2 71% 100 29.96 0.0
16 11:15 SW 7 10.00 Fair CLR 86.5 77.7 75% 99 29.95 0.0
16 10:55 S 8 10.00 Fair CLR 86 77.4 75% 98 29.95 0.0
16 10:35 S 9 10.00 Fair CLR 85.3 76.1 74% 95 29.95 0.0
16 10:15 S 7 10.00 Fair CLR 84.4 76.3 77% 94 29.95 0.0
16 09:55 SW 6 10.00 Fair CLR 84.2 76.1 77% 93 29.95 0.0
16 09:35 S 7 10.00 Fair CLR 82.8 75.6 79% 90 29.95 0.0
16 09:15 SW 6 10.00 Fair CLR 81.7 75.4 81% 88 29.95 0.0
16 08:55 S 7 10.00 Fair CLR 81.5 74.8 80% 88 29.95 0.0
16 08:35 SW 9 10.00 Fair CLR 81.7 75 80% 88 29.96 0.0
16 08:15 S 7 10.00 Fair CLR 79.5 74.5 85% 84 29.95 0.0
16 07:55 SW 7 10.00 Fair CLR 79.2 73.8 80.6 75.2 84% 83 29.95 0.0
16 07:35 S 8 10.00 Fair CLR 78.6 73.9 86% 82 29.95 0.0
16 07:15 S 6 10.00 Fair CLR 77.5 73.8 88% 79 29.94 0.0
16 06:55 S 7 10.00 Fair CLR 76.6 73.4 90% 77 29.94 0.0
16 06:35 SW 6 10.00 Fair CLR 76.3 73 90% 77 29.95 0.0
16 06:15 SW 6 10.00 Fair CLR 75.6 72.7 91% 75 29.95 0.0
16 05:55 S 5 10.00 Fair CLR 75.6 72.5 90% 75 29.94 0.0
16 05:35 SW 5 10.00 Fair CLR 76.1 72.5 89% 76 29.94 0.0
16 05:15 SW 3 10.00 Fair CLR 75.6 72.3 90% 75 29.93 0.0
16 04:55 SW 5 10.00 Fair CLR 75.9 72.3 89% 76 29.93 0.0
16 04:35 S 5 10.00 Fair CLR 76.8 72.5 87% 78 29.93 0.0
16 04:15 SW 7 10.00 Fair CLR 77.2 72.5 86% 79 29.92 0.0
16 03:55 SW 6 10.00 Fair CLR 77.2 72.7 86% 79 29.91 0.0
16 03:35 S 5 10.00 Fair CLR 77.9 73 85% 80 29.91 0.0
16 03:15 SW 6 10.00 Fair CLR 78.3 73.4 85% 81 29.91 0.0
16 02:55 S 6 10.00 Fair CLR 78.1 73.8 87% 81 29.91 0.0
16 02:35 S 5 10.00 Fair CLR 78.8 73.4 84% 82 29.91 0.0
16 02:15 SW 5 10.00 Fair CLR 80.4 73.4 79% 85 29.91 0.0
16 01:55 SW 7 10.00 Fair CLR 80.6 74.3 88.7 80.4 81% 86 29.91 0.0
16 01:35 SW 6 10.00 Fair CLR 80.6 75.6 85% 86 29.92 0.0
16 01:15 SW 7 10.00 Fair CLR 80.6 76.1 86% 87 29.93 0.0
16 00:55 SW 6 10.00 Fair CLR 80.8 76.1 86% 87 29.93 0.0
16 00:35 SW 6 10.00 Fair CLR 80.8 76.1 86% 87 29.93 0.0
16 00:15 S 6 10.00 Fair CLR 81.3 76.1 84% 88 29.93 0.0
15 23:55 SW 6 10.00 Fair CLR 81.5 76.1 84% 88 29.93 0.0
15 23:35 SW 6 10.00 Fair CLR 82.9 75.7 79% 91 29.93 0.0
15 23:15 SW 6 10.00 Fair CLR 82.9 76.1 80% 91 29.93 0.0
15 22:55 SW 7 10.00 Fair CLR 83.3 76.6 80% 92 29.93 0.0
15 22:15 S 5 10.00 Fair CLR 83.7 78.8 85% 95 29.93 0.0
15 21:55 S 6 10.00 Fair CLR 84.6 78.3 81% 96 29.93 0.0
15 21:35 S 6 10.00 Fair CLR 84.7 78.8 82% 97 29.92 0.0
15 21:15 S 6 10.00 Fair CLR 85.3 78.3 80% 97 29.92 0.0
15 20:55 S 5 10.00 Fair CLR 86.4 78.3 77% 99 29.93 0.0
15 20:35 S 3 10.00 Partly Cloudy SCT003 86.5 78.8 78% 100 29.93 0.0
15 20:15 S 3 10.00 Fair CLR 87.6 78.8 75% 102 29.93 0.0
15 19:55 Calm 10.00 Fair CLR 88.7 79.2 95 88.7 73% 104 29.92 0.0
15 19:35 S 3 10.00 Fair CLR 90.1 78.3 68% 105 29.92 0.0
15 19:15 S 3 10.00 Fair CLR 90.5 78.3 67% 106 29.91 0.0
15 18:55 SE 3 10.00 Fair CLR 91.2 77.7 65% 106 29.9 0.0
15 18:35 S 5 10.00 Fair CLR 91.8 76.3 61% 104 29.9 0.0
15 18:15 S 5 10.00 Fair CLR 92.7 76.1 59% 105 29.9 0.0
15 17:55 S 6 10.00 Fair CLR 92.7 75 57% 104 29.91 0.0
15 17:35 S 6 10.00 Fair CLR 93.2 74.7 55% 104 29.92 0.0
15 17:15 SW 6 10.00 Fair CLR 94.8 71.2 46% 102 29.93 0.0
15 16:55 S 7 10.00 Fair CLR 94.6 73 50% 104 29.92 0.0
15 16:35 S 3 10.00 Fair CLR 94.3 73.4 51% 104 29.93 0.0
15 16:15 E 3 10.00 Fair CLR 94.1 72.7 50% 103 29.93 0.0
15 15:55 SE 3 10.00 Fair CLR 94.5 70 45% 101 29.94 0.0
15 15:35 SW 8 10.00 Fair CLR 94.1 71.4 48% 102 29.94 0.0
15 15:15 S 5 10.00 Fair CLR 93.4 70.7 48% 100 29.95 0.0
15 14:55 SW 6 10.00 Fair CLR 93.4 72.5 51% 102 29.96 0.0
15 14:35 S 6 10.00 Fair CLR 93.4 71.1 48% 100 29.97 0.0
15 14:15 W 3 10.00 Fair CLR 93.6 71.4 49% 101 29.98 0.0
15 13:55 SW 5 10.00 Fair CLR 93.4 71.8 93.4 79.9 50% 101 29.98 0.0
15 13:35 SE 3 10.00 Fair CLR 93.4 72.3 50% 102 29.98 0.0
15 13:15 W 6 10.00 Fair CLR 92.5 72.1 52% 100 29.99 0.0
15 12:55 Calm 10.00 Fair CLR 92.3 69.8 48% 98 29.99 0.0
15 12:35 W 3 10.00 Fair CLR 91.8 70.7 50% 98 29.99 0.0
15 12:15 Calm 10.00 Fair CLR 91 70.3 51% 97 30 0.0
15 11:55 W 6 10.00 Fair CLR 90.5 70.9 53% 97 30.01 0.0
15 11:35 W 5 10.00 Fair CLR 89.8 71.4 55% 96 30 0.0
15 11:15 NW 6 10.00 Fair CLR 89.1 70.5 54% 95 30 0.0
15 10:55 NW 5 10.00 Fair CLR 89.1 70.5 54% 95 30 0.0
15 10:35 NW 7 10.00 Fair CLR 88.2 70.9 57% 94 30.01 0.0
15 10:15 W 10 10.00 Fair CLR 87.8 71.4 58% 94 30.01 0.0
15 09:55 NW 6 10.00 Fair CLR 87.1 73 63% 95 30.01 0.0
15 09:35 W 9 10.00 Fair CLR 86 73.4 66% 93 30.01 0.0
15 09:15 W 3 10.00 Fair CLR 84.6 75.4 74% 93 30.01 0.0
15 08:55 W 6 10.00 Fair CLR 83.3 76.1 79% 92 30.02 0.0
15 08:35 W 6 10.00 Fair CLR 82 76.1 82% 89 30.01 0.0
15 08:15 W 7 10.00 Fair CLR 81 76.1 85% 87 30.01 0.0
15 07:55 W 10 10.00 Fair CLR 79.9 76.6 79.9 75.2 90% 85 30.01 0.0
15 07:35 SW 7 10.00 Partly Cloudy SCT008 78.8 76.3 92% 83 30 0.0
15 07:15 SW 5 10.00 Fair CLR 77.5 76.5 96% 79 30 0.0
15 06:55 SW 3 7.00 Fair CLR 76.6 76.1 98% 77 29.99 0.0
15 06:35 SW 6 7.00 Fair CLR 76.1 75.6 98% 75 29.98 0.0
15 06:15 SW 5 7.00 Fair CLR 75.2 74.7 98% 73 29.99 0.0
15 05:55 S 3 7.00 Fair CLR 75.2 74.5 98% 73 29.98 0.0
15 05:35 SW 3 10.00 Fair CLR 75.6 74.7 97% 74 29.98 0.0
15 05:15 SW 3 10.00 Fair CLR 75.6 74.5 96% 74 29.98 0.0
15 04:55 SW 5 10.00 Fair CLR 76.3 74.5 94% 76 29.98 0.0
15 04:35 SW 3 10.00 Fair CLR 76.3 74.3 94% 76 29.97 0.0
15 04:15 SW 5 10.00 Fair CLR 76.5 74.3 93% 77 29.97 0.0
15 03:55 SW 5 10.00 Fair CLR 76.3 73.9 93% 76 29.97 0.0
15 03:35 SW 5 10.00 Fair CLR 76.1 73.9 93% 76 29.97 0.0
15 03:15 S 5 10.00 Fair CLR 75.6 73.4 93% 75 29.97 0.0
15 02:55 SW 3 10.00 Fair CLR 76.1 73 90% 76 29.97 0.0
15 02:35 SW 3 10.00 Fair CLR 75.4 72.5 91% 75 29.98 0.0
15 02:15 S 3 10.00 Fair CLR 75.6 72.3 90% 75 29.98 0.0
15 01:55 SW 3 10.00 Fair CLR 76.1 72 78.6 74.3 87% 77 29.99 0.0
15 01:35 SW 6 10.00 Fair CLR 75.7 71.8 88% 76 29.99 0.0
15 01:15 SW 7 10.00 Fair CLR 75.4 71.6 88% 75 30 0.0
15 00:55 S 5 10.00 Fair CLR 75.2 71.6 89% 75 30 0.0
15 00:35 SW 5 10.00 Fair CLR 75.4 72 89% 75 30 0.0
15 00:15 SW 5 10.00 Fair CLR 74.7 72 91% 30.01 0.0
14 23:55 S 5 10.00 Fair CLR 74.8 71.8 90% 30.01 0.0
14 23:35 S 5 10.00 Fair CLR 74.7 72 91% 30.01 0.0
14 23:15 S 5 10.00 Fair CLR 74.3 72.1 93% 30.02 0.0
14 22:55 S 3 10.00 Fair CLR 74.5 72 92% 30.02 0.0
14 22:35 S 3 10.00 Fair CLR 75 71.8 90% 74 30.03 0.0
14 22:15 Calm 10.00 Fair CLR 75.6 72 89% 75 30.03 0.0
14 21:55 SW 3 10.00 Fair CLR 75.7 71.8 88% 76 30.03 0.0
14 21:35 S 3 10.00 Fair CLR 76.1 71.6 86% 77 30.02 0.0
14 21:15 S 3 10.00 Fair CLR 76.1 71.6 86% 77 30.02 0.0
14 20:55 Calm 10.00 Fair CLR 76.3 71.4 85% 77 30.02 0.0
14 20:35 S 3 10.00 Fair CLR 77.7 70.9 80% 80 30.01 0.0
14 20:15 Calm 10.00 Fair CLR 77.9 70.7 79% 80 30.01 0.0
14 19:55 SE 5 10.00 Fair CLR 78.8 71.1 92.7 78.8 77% 82 30.01 0.0
14 19:35 S 5 10.00 Fair CLR 79.7 70.5 74% 83 30.02 0.0
14 19:15 S 7 10.00 Fair CLR 81 70.2 70% 85 30.02 0.0
14 18:55 S 10 10.00 Fair CLR 82.4 73 73% 88 30.03 0.0
14 18:35 S 8 10.00 Fair CLR 83.3 73.4 72% 90 30.03 0.0
14 18:15 S 6 10.00 Fair CLR 83.3 71.8 68% 89 30.03 0.0
14 17:55 SW 9 10.00 Fair CLR 84.2 73.2 70% 91 30.02 0.0
14 17:35 SW 14 G 21 10.00 Thunderstorm in Vicinity CLR 88.3 70.5 56% 94 30.02 0.0
14 17:15 S 10 10.00 Fair CLR 90 73.4 58% 99 30 0.0
14 16:55 S 7 10.00 Thunderstorm in Vicinity CLR 90.5 73 57% 99 30 0.0
14 16:35 S 6 10.00 Fair CLR 90.1 73.4 58% 99 30 0.0
14 16:15 S 10 10.00 Partly Cloudy SCT039 SCT049 90.5 75.7 62% 102 30.01 0.0
14 15:55 S 9 10.00 Mostly Cloudy SCT039 BKN049 BKN070 92.3 77.9 63% 108 30.02 0.0
14 15:35 S 7 10.00 Partly Cloudy SCT041 92.5 76.8 60% 106 30.03 0.0
14 15:15 S 6 10.00 Partly Cloudy SCT038 SCT044 92.3 76.3 60% 105 30.03 0.0
14 14:55 S 7 10.00 Mostly Cloudy BKN037 BKN045 91.2 76.3 62% 104 30.04 0.0
14 14:35 S 5 10.00 Partly Cloudy SCT039 SCT050 SCT065 92.1 76.5 60% 105 30.05 0.0
14 14:15 SW 5 10.00 Mostly Cloudy BKN039 BKN046 92.3 75 57% 104 30.06 0.0
14 13:55 S 5 10.00 Mostly Cloudy BKN037 BKN043 91.6 75.7 91.8 77 60% 104 30.06 0.0
14 13:35 S 6 10.00 Partly Cloudy SCT035 91.2 76.1 61% 104 30.06 0.0
14 13:15 SW 3 10.00 Fair CLR 91.4 76.8 62% 105 30.07 0.0
14 12:55 W 3 10.00 Fair CLR 90.1 75.6 62% 101 30.08 0.0
14 12:35 Calm 10.00 Fair CLR 90.3 76.5 64% 103 30.08 0.0
14 12:15 Calm 10.00 Fair CLR 90 75.6 63% 101 30.09 0.0
14 11:55 SW 3 10.00 Fair CLR 89.8 75.6 63% 101 30.09 0.0
14 11:35 Calm 10.00 Fair CLR 88.5 75.9 66% 100 30.1 0.0
14 11:15 Calm 10.00 Fair CLR 88.2 77 70% 100 30.09 0.0
14 10:55 Calm 10.00 Fair CLR 87.1 76.1 70% 98 30.1 0.0
14 10:35 Calm 10.00 Fair CLR 86.5 77.2 74% 98 30.1 0.0
14 10:15 Calm 10.00 Fair CLR 85.5 77 76% 96 30.1 0.0
14 09:55 Calm 10.00 Fair CLR 84.4 77 79% 94 30.1 0.0
14 09:35 S 3 10.00 Fair CLR 83.3 78.3 85% 94 30.11 0.0
14 09:15 Calm 10.00 Fair CLR 81 80.4 98% 90 30.1 0.0
14 08:55 SW 3 10.00 Fair CLR 79 79 100% 84 30.11 0.0
14 08:35 Calm 10.00 Partly Cloudy SCT002 78.4 78.4 100% 82 30.11 0.0
14 08:15 SE 3 10.00 Mostly Cloudy BKN002 77.9 77.9 100% 80 30.11 0.0
14 07:55 Calm 5.00 Fog/Mist OVC002 77 77 77 75.2 100% 78 30.1 0.0
14 07:35 Calm 0.75 Fog/Mist OVC002 76.1 76.1 100% 75 30.09 0.0
14 07:15 Calm 0.25 Fog OVC002 75.9 75.9 100% 75 30.09 0.0
Date Time (edt) Wind (mph) Vis. (mi.) Weather Sky Cond. Air Dwpt Max. Min. Relative Humidity Wind Chill (°F) Heat Index (°F) altimeter (in) sea level (mb) 1 hr 3 hr 6 hr
6 hour
Temperature (ºF) Pressure Precipitation (in)